| time (UTC) | temp F | wind direction | speed MPH | gust MPH | rain 1hr in | rain 24hr in | rain mn in | humidity % | barometer mb |
| 20260507040503 | 56 | 0 | 0.0 | 0.0 | 0.01 | 0.18 | 0.00 | 92 | 1006.7 |
| 20260507040004 | 57 | 0 | 0.0 | 0.0 | 0.01 | 0.18 | 0.00 | 91 | 1006.7 |
| 20260507035524 | 57 | 283 | 0.0 | 6.0 | 0.01 | 0.18 | 0.18 | 90 | 1006.6 |
| 20260507035003 | 57 | 283 | 1.0 | 9.0 | 0.00 | 0.17 | 0.17 | 90 | 1006.5 |
| 20260507034503 | 57 | 283 | 1.0 | 9.0 | 0.00 | 0.17 | 0.17 | 89 | 1006.4 |
| 20260507034003 | 57 | 283 | 1.0 | 9.0 | 0.00 | 0.17 | 0.17 | 88 | 1006.2 |
| 20260507033503 | 58 | 284 | 3.0 | 9.0 | 0.00 | 0.17 | 0.17 | 88 | 1006.1 |
| 20260507033003 | 58 | 286 | 3.0 | 10.0 | 0.00 | 0.17 | 0.17 | 87 | 1006.0 |
| 20260507032503 | 58 | 287 | 4.0 | 10.0 | 0.00 | 0.17 | 0.17 | 87 | 1006.1 |
| 20260507032003 | 58 | 291 | 5.0 | 13.0 | 0.00 | 0.17 | 0.17 | 87 | 1006.0 |
| 20260507031503 | 58 | 299 | 5.0 | 13.0 | 0.00 | 0.17 | 0.17 | 86 | 1005.8 |
| 20260507031024 | 59 | 309 | 4.0 | 11.0 | 0.00 | 0.17 | 0.17 | 87 | 1005.7 |
| 20260507030503 | 59 | 302 | 4.0 | 14.0 | 0.00 | 0.17 | 0.17 | 90 | 1005.4 |
| 20260507030024 | 60 | 279 | 5.0 | 14.0 | 0.00 | 0.17 | 0.17 | 91 | 1005.5 |
| 20260507025524 | 60 | 239 | 3.0 | 14.0 | 0.00 | 0.17 | 0.17 | 95 | 1005.6 |
| 20260507025003 | 60 | 175 | 1.0 | 6.0 | 0.00 | 0.17 | 0.17 | 95 | 1005.5 |
| 20260507024524 | 60 | 173 | 0.0 | 2.0 | 0.00 | 0.17 | 0.17 | 95 | 1005.5 |
| 20260507024003 | 60 | 0 | 0.0 | 0.0 | 0.00 | 0.17 | 0.17 | 95 | 1005.3 |
| 20260507023503 | 60 | 173 | 0.0 | 1.0 | 0.00 | 0.17 | 0.17 | 95 | 1005.3 |
| 20260507023003 | 60 | 171 | 1.0 | 8.0 | 0.00 | 0.17 | 0.17 | 95 | 1005.3 |
| 20260507022524 | 60 | 170 | 1.0 | 8.0 | 0.00 | 0.17 | 0.17 | 95 | 1005.4 |
| 20260507022024 | 60 | 169 | 1.0 | 5.0 | 0.00 | 0.17 | 0.17 | 94 | 1005.4 |
| 20260507021503 | 60 | 169 | 1.0 | 5.0 | 0.00 | 0.17 | 0.17 | 94 | 1005.3 |
| 20260507021003 | 60 | 169 | 0.0 | 5.0 | 0.00 | 0.17 | 0.17 | 94 | 1005.1 |
| 20260507020503 | 60 | 169 | 0.0 | 5.0 | 0.00 | 0.17 | 0.17 | 94 | 1004.9 |
| 20260507020024 | 60 | 169 | 1.0 | 5.0 | 0.00 | 0.17 | 0.17 | 94 | 1005.0 |
| 20260507015503 | 60 | 169 | 3.0 | 7.0 | 0.00 | 0.17 | 0.17 | 94 | 1005.1 |
| 20260507015003 | 60 | 169 | 3.0 | 9.0 | 0.00 | 0.17 | 0.17 | 94 | 1005.2 |
| 20260507014503 | 60 | 169 | 4.0 | 9.0 | 0.00 | 0.17 | 0.17 | 94 | 1005.0 |
| 20260507014024 | 60 | 169 | 4.0 | 9.0 | 0.00 | 0.17 | 0.17 | 94 | 1005.1 |
| 20260507013503 | 60 | 169 | 4.0 | 9.0 | 0.00 | 0.17 | 0.17 | 94 | 1005.0 |
| 20260507013003 | 60 | 170 | 4.0 | 10.0 | 0.00 | 0.17 | 0.17 | 94 | 1005.0 |
| 20260507012503 | 60 | 170 | 4.0 | 10.0 | 0.00 | 0.17 | 0.17 | 95 | 1005.0 |
| 20260507012003 | 60 | 170 | 3.0 | 9.0 | 0.00 | 0.17 | 0.17 | 95 | 1005.2 |
| 20260507011524 | 60 | 169 | 3.0 | 9.0 | 0.00 | 0.17 | 0.17 | 95 | 1005.1 |
| 20260507011003 | 60 | 168 | 4.0 | 10.0 | 0.00 | 0.17 | 0.17 | 95 | 1005.1 |
| 20260507010504 | 60 | 167 | 4.0 | 10.0 | 0.00 | 0.17 | 0.17 | 95 | 1005.2 |
| 20260507010003 | 60 | 167 | 3.0 | 6.0 | 0.00 | 0.17 | 0.17 | 95 | 1005.2 |
| 20260507005504 | 60 | 167 | 4.0 | 11.0 | 0.00 | 0.17 | 0.17 | 95 | 1005.2 |
| 20260507005004 | 60 | 167 | 4.0 | 11.0 | 0.00 | 0.17 | 0.17 | 95 | 1005.2 |
| 20260507004503 | 60 | 170 | 4.0 | 11.0 | 0.00 | 0.17 | 0.17 | 95 | 1005.1 |
| 20260507004003 | 60 | 171 | 4.0 | 11.0 | 0.00 | 0.17 | 0.17 | 95 | 1005.0 |
| 20260507003524 | 60 | 171 | 4.0 | 12.0 | 0.00 | 0.17 | 0.17 | 95 | 1005.0 |
| 20260507003004 | 60 | 170 | 5.0 | 12.0 | 0.00 | 0.17 | 0.17 | 95 | 1005.0 |
| 20260507002503 | 60 | 170 | 5.0 | 11.0 | 0.00 | 0.17 | 0.17 | 95 | 1004.9 |
| 20260507002003 | 60 | 171 | 4.0 | 12.0 | 0.00 | 0.17 | 0.17 | 95 | 1004.8 |
| 20260507001524 | 60 | 170 | 4.0 | 12.0 | 0.00 | 0.17 | 0.17 | 95 | 1004.9 |
| 20260507001003 | 60 | 169 | 5.0 | 12.0 | 0.00 | 0.17 | 0.17 | 95 | 1004.9 |
| 20260507000504 | 60 | 167 | 5.0 | 12.0 | 0.01 | 0.17 | 0.17 | 95 | 1005.0 |
| 20260507000004 | 60 | 166 | 5.0 | 11.0 | 0.02 | 0.17 | 0.17 | 95 | 1005.0 |
| 20260506235503 | 60 | 166 | 5.0 | 10.0 | 0.02 | 0.17 | 0.17 | 95 | 1004.8 |
| 20260506235003 | 60 | 165 | 4.0 | 10.0 | 0.03 | 0.17 | 0.17 | 95 | 1004.8 |
| 20260506234503 | 60 | 166 | 5.0 | 14.0 | 0.03 | 0.17 | 0.17 | 95 | 1004.9 |
| 20260506234024 | 60 | 168 | 6.0 | 14.0 | 0.04 | 0.17 | 0.17 | 95 | 1004.7 |
| 20260506233503 | 60 | 168 | 6.0 | 12.0 | 0.04 | 0.17 | 0.17 | 95 | 1004.7 |
| 20260506233003 | 60 | 168 | 4.0 | 11.0 | 0.04 | 0.17 | 0.17 | 95 | 1004.7 |
| 20260506232503 | 60 | 168 | 3.0 | 10.0 | 0.05 | 0.17 | 0.17 | 95 | 1004.8 |
| 20260506232003 | 60 | 167 | 4.0 | 10.0 | 0.05 | 0.17 | 0.17 | 95 | 1004.8 |
| 20260506231503 | 60 | 166 | 4.0 | 10.0 | 0.05 | 0.17 | 0.17 | 95 | 1004.7 |
| 20260506231003 | 60 | 167 | 4.0 | 10.0 | 0.05 | 0.17 | 0.17 | 95 | 1004.8 |
| 20260506230503 | 60 | 168 | 4.0 | 11.0 | 0.04 | 0.16 | 0.16 | 94 | 1004.8 |
| 20260506230003 | 60 | 168 | 3.0 | 11.0 | 0.03 | 0.15 | 0.15 | 94 | 1004.9 |
| 20260506225503 | 60 | 167 | 2.0 | 10.0 | 0.03 | 0.15 | 0.15 | 94 | 1004.9 |
| 20260506225003 | 60 | 167 | 4.0 | 11.0 | 0.02 | 0.14 | 0.14 | 94 | 1005.0 |
| 20260506224503 | 60 | 166 | 5.0 | 11.0 | 0.03 | 0.14 | 0.14 | 94 | 1005.1 |
| 20260506224003 | 60 | 168 | 5.0 | 11.0 | 0.02 | 0.13 | 0.13 | 93 | 1005.1 |
| 20260506223503 | 61 | 171 | 5.0 | 12.0 | 0.02 | 0.13 | 0.13 | 93 | 1005.1 |
| 20260506223003 | 61 | 169 | 5.0 | 12.0 | 0.02 | 0.13 | 0.13 | 93 | 1005.0 |
| 20260506222524 | 61 | 166 | 5.0 | 11.0 | 0.02 | 0.12 | 0.12 | 93 | 1005.0 |
| 20260506222003 | 61 | 165 | 5.0 | 14.0 | 0.02 | 0.12 | 0.12 | 93 | 1005.1 |
| 20260506221504 | 61 | 165 | 5.0 | 14.0 | 0.02 | 0.12 | 0.12 | 93 | 1005.1 |
| 20260506221003 | 61 | 169 | 6.0 | 12.0 | 0.02 | 0.12 | 0.12 | 93 | 1005.1 |
| 20260506220503 | 61 | 170 | 6.0 | 12.0 | 0.02 | 0.12 | 0.12 | 93 | 1005.1 |
| 20260506220024 | 61 | 169 | 4.0 | 11.0 | 0.03 | 0.12 | 0.12 | 93 | 1005.1 |
| 20260506215524 | 61 | 169 | 5.0 | 15.0 | 0.03 | 0.12 | 0.12 | 93 | 1005.1 |
| 20260506215004 | 61 | 170 | 5.0 | 15.0 | 0.03 | 0.12 | 0.12 | 93 | 1005.1 |
| 20260506214503 | 61 | 171 | 4.0 | 14.0 | 0.03 | 0.11 | 0.11 | 93 | 1005.0 |
| 20260506214024 | 61 | 169 | 5.0 | 14.0 | 0.04 | 0.11 | 0.11 | 93 | 1005.1 |
| 20260506213503 | 61 | 167 | 5.0 | 12.0 | 0.04 | 0.11 | 0.11 | 92 | 1005.0 |
| 20260506213003 | 61 | 165 | 6.0 | 16.0 | 0.04 | 0.11 | 0.11 | 92 | 1005.1 |
| 20260506212503 | 61 | 164 | 5.0 | 16.0 | 0.04 | 0.10 | 0.10 | 92 | 1005.0 |
| 20260506212003 | 62 | 164 | 5.0 | 14.0 | 0.04 | 0.10 | 0.10 | 92 | 1005.2 |
| 20260506211503 | 62 | 167 | 6.0 | 17.0 | 0.04 | 0.10 | 0.10 | 92 | 1005.4 |
| 20260506211003 | 62 | 167 | 7.0 | 17.0 | 0.05 | 0.10 | 0.10 | 92 | 1005.4 |
| 20260506210503 | 62 | 165 | 7.0 | 17.0 | 0.05 | 0.10 | 0.10 | 92 | 1005.5 |
| 20260506210024 | 62 | 166 | 7.0 | 17.0 | 0.04 | 0.09 | 0.09 | 92 | 1005.5 |
| 20260506205503 | 62 | 172 | 6.0 | 17.0 | 0.04 | 0.09 | 0.09 | 92 | 1005.5 |
| 20260506205003 | 62 | 177 | 4.0 | 12.0 | 0.04 | 0.09 | 0.09 | 92 | 1005.7 |
| 20260506204524 | 62 | 170 | 5.0 | 16.0 | 0.03 | 0.08 | 0.08 | 91 | 1005.6 |
| 20260506204025 | 62 | 164 | 6.0 | 16.0 | 0.02 | 0.07 | 0.07 | 91 | 1005.9 |
| 20260506203503 | 62 | 164 | 5.0 | 15.0 | 0.02 | 0.07 | 0.07 | 91 | 1005.9 |
| 20260506203004 | 62 | 166 | 6.0 | 15.0 | 0.02 | 0.07 | 0.07 | 91 | 1005.9 |
| 20260506202504 | 63 | 169 | 6.0 | 15.0 | 0.01 | 0.06 | 0.06 | 90 | 1005.8 |
| 20260506202004 | 63 | 172 | 6.0 | 14.0 | 0.01 | 0.06 | 0.06 | 89 | 1005.8 |
| 20260506201524 | 63 | 181 | 6.0 | 14.0 | 0.01 | 0.06 | 0.06 | 89 | 1005.8 |
| 20260506201004 | 63 | 189 | 6.0 | 13.0 | 0.00 | 0.05 | 0.05 | 88 | 1005.9 |
| 20260506200504 | 64 | 184 | 5.0 | 13.0 | 0.01 | 0.05 | 0.05 | 87 | 1005.9 |
| 20260506200024 | 64 | 181 | 6.0 | 15.0 | 0.01 | 0.05 | 0.05 | 86 | 1005.9 |
| 20260506195503 | 64 | 183 | 6.0 | 15.0 | 0.02 | 0.05 | 0.05 | 86 | 1006.0 |
| 20260506195025 | 64 | 185 | 4.0 | 11.0 | 0.02 | 0.05 | 0.05 | 87 | 1005.9 |
| 20260506194503 | 64 | 183 | 4.0 | 10.0 | 0.02 | 0.05 | 0.05 | 87 | 1006.0 |
| 20260506194003 | 64 | 171 | 6.0 | 19.0 | 0.03 | 0.05 | 0.05 | 86 | 1005.9 |
| 20260506193503 | 64 | 168 | 7.0 | 19.0 | 0.03 | 0.05 | 0.05 | 86 | 1005.8 |
| 20260506193003 | 64 | 171 | 6.0 | 16.0 | 0.04 | 0.05 | 0.05 | 87 | 1005.8 |
| 20260506192504 | 64 | 179 | 3.0 | 12.0 | 0.04 | 0.05 | 0.05 | 88 | 1005.9 |
| 20260506192025 | 64 | 205 | 1.0 | 8.0 | 0.04 | 0.05 | 0.05 | 89 | 1005.9 |
| 20260506191503 | 64 | 216 | 1.0 | 7.0 | 0.04 | 0.05 | 0.05 | 89 | 1005.9 |
| 20260506191025 | 64 | 231 | 0.0 | 3.0 | 0.05 | 0.05 | 0.05 | 89 | 1005.7 |
| 20260506190503 | 64 | 232 | 0.0 | 6.0 | 0.04 | 0.04 | 0.04 | 88 | 1005.7 |
| 20260506190004 | 64 | 233 | 1.0 | 8.0 | 0.04 | 0.04 | 0.04 | 88 | 1005.9 |
| 20260506185524 | 64 | 236 | 2.0 | 8.0 | 0.03 | 0.03 | 0.03 | 87 | 1006.1 |
| 20260506185003 | 65 | 242 | 3.0 | 8.0 | 0.03 | 0.03 | 0.03 | 86 | 1006.1 |
| 20260506184503 | 65 | 246 | 2.0 | 8.0 | 0.03 | 0.03 | 0.03 | 86 | 1006.1 |
| 20260506184003 | 65 | 248 | 2.0 | 7.0 | 0.02 | 0.02 | 0.02 | 84 | 1006.4 |
| 20260506183503 | 65 | 247 | 2.0 | 7.0 | 0.02 | 0.02 | 0.02 | 84 | 1006.2 |
| 20260506183004 | 66 | 262 | 3.0 | 10.0 | 0.01 | 0.01 | 0.01 | 82 | 1006.5 |
| 20260506182504 | 66 | 276 | 3.0 | 10.0 | 0.01 | 0.01 | 0.01 | 81 | 1006.5 |
| 20260506182003 | 67 | 288 | 3.0 | 10.0 | 0.01 | 0.01 | 0.01 | 78 | 1006.4 |
| 20260506181503 | 68 | 274 | 4.0 | 10.0 | 0.01 | 0.01 | 0.01 | 74 | 1006.6 |
| 20260506181024 | 69 | 236 | 5.0 | 12.0 | 0.00 | 0.00 | 0.00 | 71 | 1006.5 |
| 20260506180503 | 70 | 210 | 6.0 | 15.0 | 0.00 | 0.00 | 0.00 | 66 | 1006.5 |
| 20260506180004 | 71 | 209 | 5.0 | 15.0 | 0.00 | 0.00 | 0.00 | 66 | 1006.4 |
| 20260506175524 | 71 | 210 | 4.0 | 10.0 | 0.00 | 0.00 | 0.00 | 66 | 1006.3 |
| 20260506175003 | 71 | 204 | 5.0 | 14.0 | 0.00 | 0.00 | 0.00 | 65 | 1006.5 |
| 20260506174503 | 71 | 194 | 7.0 | 16.0 | 0.00 | 0.00 | 0.00 | 64 | 1006.3 |
| 20260506174003 | 71 | 185 | 9.0 | 18.0 | 0.00 | 0.00 | 0.00 | 64 | 1006.3 |
| 20260506173503 | 72 | 183 | 7.0 | 18.0 | 0.00 | 0.00 | 0.00 | 60 | 1006.3 |
| 20260506173004 | 73 | 183 | 7.0 | 15.0 | 0.00 | 0.00 | 0.00 | 61 | 1006.2 |
| 20260506172503 | 73 | 179 | 7.0 | 17.0 | 0.00 | 0.00 | 0.00 | 59 | 1006.0 |
| 20260506172024 | 73 | 189 | 7.0 | 20.0 | 0.00 | 0.00 | 0.00 | 60 | 1006.1 |
| 20260506171503 | 73 | 189 | 8.0 | 20.0 | 0.00 | 0.00 | 0.00 | 59 | 1006.1 |
| 20260506171003 | 74 | 180 | 7.0 | 17.0 | 0.00 | 0.00 | 0.00 | 58 | 1006.0 |
| 20260506170503 | 74 | 192 | 7.0 | 17.0 | 0.00 | 0.00 | 0.00 | 59 | 1006.2 |
| 20260506170004 | 74 | 198 | 8.0 | 17.0 | 0.00 | 0.00 | 0.00 | 59 | 1006.3 |
| 20260506165504 | 74 | 188 | 8.0 | 23.0 | 0.00 | 0.00 | 0.00 | 60 | 1006.5 |
| 20260506165003 | 73 | 185 | 9.0 | 23.0 | 0.00 | 0.00 | 0.00 | 60 | 1006.6 |
| 20260506164503 | 73 | 185 | 9.0 | 22.0 | 0.00 | 0.00 | 0.00 | 61 | 1006.6 |
| 20260506164003 | 73 | 176 | 9.0 | 22.0 | 0.00 | 0.00 | 0.00 | 61 | 1006.7 |
| 20260506163503 | 72 | 175 | 9.0 | 18.0 | 0.00 | 0.00 | 0.00 | 61 | 1006.7 |
| 20260506163004 | 72 | 182 | 8.0 | 18.0 | 0.00 | 0.00 | 0.00 | 62 | 1006.8 |
| 20260506162503 | 72 | 182 | 8.0 | 17.0 | 0.00 | 0.00 | 0.00 | 63 | 1006.9 |
| 20260506162025 | 72 | 185 | 6.0 | 15.0 | 0.00 | 0.00 | 0.00 | 63 | 1006.9 |
| 20260506161525 | 72 | 197 | 6.0 | 14.0 | 0.00 | 0.00 | 0.00 | 64 | 1007.0 |
| 20260506161004 | 71 | 185 | 6.0 | 13.0 | 0.00 | 0.00 | 0.00 | 65 | 1007.1 |
| 20260506160504 | 71 | 172 | 5.0 | 14.0 | 0.00 | 0.00 | 0.00 | 66 | 1007.2 |
| 20260506160004 | 71 | 171 | 5.0 | 16.0 | 0.00 | 0.00 | 0.00 | 66 | 1007.3 |
| 20260506155525 | 71 | 170 | 6.0 | 17.0 | 0.00 | 0.00 | 0.00 | 66 | 1007.4 |
| 20260506155004 | 71 | 169 | 6.0 | 17.0 | 0.00 | 0.00 | 0.00 | 65 | 1007.5 |
| 20260506154504 | 70 | 174 | 5.0 | 13.0 | 0.00 | 0.00 | 0.00 | 67 | 1007.5 |
| 20260506154004 | 70 | 182 | 4.0 | 12.0 | 0.00 | 0.00 | 0.00 | 67 | 1007.6 |
| 20260506153504 | 70 | 178 | 5.0 | 14.0 | 0.00 | 0.00 | 0.00 | 67 | 1007.7 |
| 20260506153004 | 70 | 183 | 6.0 | 14.0 | 0.00 | 0.00 | 0.00 | 68 | 1007.8 |
| 20260506152504 | 70 | 175 | 6.0 | 15.0 | 0.00 | 0.00 | 0.00 | 68 | 1008.0 |
| 20260506152004 | 70 | 172 | 6.0 | 15.0 | 0.00 | 0.00 | 0.00 | 67 | 1007.9 |
| 20260506151504 | 70 | 175 | 7.0 | 18.0 | 0.00 | 0.00 | 0.00 | 68 | 1008.0 |
| 20260506151004 | 70 | 170 | 8.0 | 19.0 | 0.00 | 0.00 | 0.00 | 67 | 1008.1 |
| 20260506150504 | 70 | 169 | 8.0 | 19.0 | 0.00 | 0.00 | 0.00 | 68 | 1008.1 |
| 20260506150004 | 70 | 168 | 6.0 | 19.0 | 0.00 | 0.00 | 0.00 | 67 | 1008.0 |
| 20260506145504 | 70 | 177 | 6.0 | 19.0 | 0.00 | 0.00 | 0.00 | 68 | 1008.1 |
| 20260506145004 | 70 | 177 | 6.0 | 15.0 | 0.00 | 0.00 | 0.00 | 69 | 1008.3 |
| 20260506144504 | 70 | 172 | 7.0 | 15.0 | 0.00 | 0.00 | 0.00 | 68 | 1008.4 |
| 20260506144003 | 70 | 177 | 6.0 | 15.0 | 0.00 | 0.00 | 0.00 | 68 | 1008.2 |
| 20260506143504 | 70 | 187 | 7.0 | 15.0 | 0.00 | 0.00 | 0.00 | 70 | 1008.1 |
| 20260506143025 | 69 | 182 | 8.0 | 15.0 | 0.00 | 0.00 | 0.00 | 69 | 1008.2 |
| 20260506142504 | 69 | 172 | 6.0 | 15.0 | 0.00 | 0.00 | 0.00 | 70 | 1008.1 |
| 20260506142004 | 69 | 181 | 5.0 | 15.0 | 0.00 | 0.00 | 0.00 | 70 | 1008.1 |
| 20260506141524 | 69 | 188 | 6.0 | 15.0 | 0.00 | 0.00 | 0.00 | 70 | 1008.0 |
| 20260506141003 | 69 | 178 | 7.0 | 17.0 | 0.00 | 0.00 | 0.00 | 71 | 1007.9 |
| 20260506140504 | 69 | 176 | 7.0 | 19.0 | 0.00 | 0.00 | 0.00 | 71 | 1007.9 |
| 20260506140004 | 68 | 181 | 6.0 | 19.0 | 0.00 | 0.00 | 0.00 | 72 | 1007.9 |
| 20260506135525 | 68 | 175 | 6.0 | 18.0 | 0.00 | 0.00 | 0.00 | 73 | 1008.1 |
| 20260506135003 | 68 | 166 | 6.0 | 17.0 | 0.00 | 0.00 | 0.00 | 73 | 1008.1 |
| 20260506134504 | 67 | 169 | 7.0 | 16.0 | 0.00 | 0.00 | 0.00 | 73 | 1008.1 |
| 20260506134003 | 67 | 172 | 6.0 | 15.0 | 0.00 | 0.00 | 0.00 | 73 | 1008.2 |
| 20260506133503 | 67 | 171 | 6.0 | 16.0 | 0.00 | 0.00 | 0.00 | 74 | 1008.2 |
| 20260506133003 | 67 | 170 | 7.0 | 17.0 | 0.00 | 0.00 | 0.00 | 74 | 1008.3 |
| 20260506132504 | 67 | 171 | 7.0 | 17.0 | 0.00 | 0.00 | 0.00 | 74 | 1008.4 |
| 20260506132003 | 67 | 170 | 8.0 | 17.0 | 0.00 | 0.00 | 0.00 | 75 | 1008.5 |
| 20260506131504 | 67 | 165 | 7.0 | 19.0 | 0.00 | 0.00 | 0.00 | 74 | 1008.7 |
| 20260506131024 | 66 | 164 | 6.0 | 19.0 | 0.00 | 0.00 | 0.00 | 75 | 1008.7 |
| 20260506130503 | 66 | 171 | 7.0 | 17.0 | 0.00 | 0.00 | 0.00 | 75 | 1008.6 |
| 20260506130004 | 66 | 172 | 7.0 | 17.0 | 0.00 | 0.00 | 0.00 | 75 | 1008.7 |
| 20260506125503 | 66 | 171 | 8.0 | 17.0 | 0.00 | 0.00 | 0.00 | 75 | 1008.5 |
| 20260506125003 | 66 | 172 | 7.0 | 17.0 | 0.00 | 0.00 | 0.00 | 75 | 1008.8 |
| 20260506124503 | 66 | 179 | 7.0 | 17.0 | 0.00 | 0.00 | 0.00 | 75 | 1008.8 |
| 20260506124003 | 66 | 176 | 8.0 | 16.0 | 0.00 | 0.00 | 0.00 | 75 | 1008.7 |
| 20260506123503 | 66 | 172 | 7.0 | 16.0 | 0.00 | 0.00 | 0.00 | 76 | 1008.6 |
| 20260506123003 | 65 | 175 | 8.0 | 14.0 | 0.00 | 0.00 | 0.00 | 77 | 1008.3 |
| 20260506122503 | 65 | 172 | 7.0 | 14.0 | 0.00 | 0.00 | 0.00 | 77 | 1008.4 |
| 20260506122003 | 64 | 173 | 5.0 | 14.0 | 0.00 | 0.00 | 0.00 | 77 | 1008.4 |
| 20260506121504 | 64 | 173 | 6.0 | 12.0 | 0.00 | 0.00 | 0.00 | 78 | 1008.5 |
| 20260506121003 | 64 | 170 | 9.0 | 17.0 | 0.00 | 0.00 | 0.00 | 77 | 1008.7 |
| 20260506120503 | 64 | 170 | 8.0 | 17.0 | 0.00 | 0.00 | 0.00 | 77 | 1008.8 |
| 20260506120024 | 64 | 172 | 6.0 | 15.0 | 0.00 | 0.00 | 0.00 | 77 | 1008.7 |
| 20260506115503 | 64 | 167 | 6.0 | 11.0 | 0.00 | 0.00 | 0.00 | 79 | 1008.7 |
| 20260506115024 | 63 | 162 | 6.0 | 16.0 | 0.00 | 0.00 | 0.00 | 78 | 1008.8 |
| 20260506114503 | 63 | 163 | 7.0 | 16.0 | 0.00 | 0.00 | 0.00 | 78 | 1008.8 |
| 20260506114003 | 63 | 167 | 7.0 | 16.0 | 0.00 | 0.00 | 0.00 | 78 | 1008.8 |
| 20260506113503 | 63 | 167 | 6.0 | 16.0 | 0.00 | 0.00 | 0.00 | 78 | 1008.9 |
| 20260506113003 | 63 | 166 | 5.0 | 14.0 | 0.00 | 0.00 | 0.00 | 79 | 1008.8 |
| 20260506112503 | 63 | 166 | 7.0 | 13.0 | 0.00 | 0.00 | 0.00 | 79 | 1008.9 |
| 20260506112003 | 63 | 165 | 6.0 | 12.0 | 0.00 | 0.00 | 0.00 | 79 | 1009.0 |
| 20260506111503 | 62 | 163 | 5.0 | 15.0 | 0.00 | 0.00 | 0.00 | 79 | 1009.1 |
| 20260506111024 | 62 | 166 | 7.0 | 15.0 | 0.00 | 0.00 | 0.00 | 79 | 1009.0 |
| 20260506110503 | 62 | 168 | 6.0 | 12.0 | 0.00 | 0.00 | 0.00 | 78 | 1008.9 |
| 20260506110004 | 62 | 169 | 6.0 | 14.0 | 0.00 | 0.00 | 0.00 | 79 | 1008.9 |
| 20260506105503 | 62 | 170 | 6.0 | 14.0 | 0.00 | 0.00 | 0.00 | 79 | 1009.0 |
| 20260506105003 | 62 | 168 | 6.0 | 10.0 | 0.00 | 0.00 | 0.00 | 79 | 1009.1 |
| 20260506104503 | 62 | 164 | 5.0 | 11.0 | 0.00 | 0.00 | 0.00 | 80 | 1009.1 |
| 20260506104003 | 61 | 163 | 5.0 | 11.0 | 0.00 | 0.00 | 0.00 | 80 | 1009.2 |
| 20260506103503 | 61 | 163 | 5.0 | 11.0 | 0.00 | 0.00 | 0.00 | 80 | 1009.2 |
| 20260506103003 | 61 | 165 | 5.0 | 11.0 | 0.00 | 0.00 | 0.00 | 79 | 1009.0 |
| 20260506102524 | 61 | 167 | 3.0 | 10.0 | 0.00 | 0.00 | 0.00 | 79 | 1008.9 |
| 20260506102024 | 62 | 167 | 3.0 | 11.0 | 0.00 | 0.00 | 0.00 | 79 | 1008.8 |
| 20260506101503 | 62 | 167 | 4.0 | 11.0 | 0.00 | 0.00 | 0.00 | 79 | 1008.7 |
| 20260506101003 | 62 | 167 | 3.0 | 11.0 | 0.00 | 0.00 | 0.00 | 79 | 1008.9 |
| 20260506100503 | 62 | 166 | 4.0 | 11.0 | 0.00 | 0.00 | 0.00 | 79 | 1009.0 |
| 20260506100004 | 62 | 166 | 5.0 | 13.0 | 0.00 | 0.00 | 0.00 | 79 | 1008.9 |
| 20260506095524 | 62 | 166 | 5.0 | 14.0 | 0.00 | 0.00 | 0.00 | 78 | 1008.9 |
| 20260506095003 | 62 | 166 | 5.0 | 14.0 | 0.00 | 0.00 | 0.00 | 78 | 1008.7 |
| 20260506094503 | 62 | 166 | 4.0 | 14.0 | 0.00 | 0.00 | 0.00 | 78 | 1008.8 |
| 20260506094003 | 62 | 167 | 4.0 | 14.0 | 0.00 | 0.00 | 0.00 | 78 | 1008.7 |
| 20260506093503 | 62 | 166 | 4.0 | 11.0 | 0.00 | 0.00 | 0.00 | 78 | 1008.8 |
| 20260506093003 | 62 | 165 | 3.0 | 11.0 | 0.00 | 0.00 | 0.00 | 78 | 1008.7 |
| 20260506092503 | 62 | 167 | 4.0 | 14.0 | 0.00 | 0.00 | 0.00 | 78 | 1008.7 |
| 20260506092003 | 62 | 167 | 5.0 | 14.0 | 0.00 | 0.00 | 0.00 | 77 | 1008.8 |
| 20260506091503 | 62 | 168 | 5.0 | 12.0 | 0.00 | 0.00 | 0.00 | 77 | 1008.8 |
| 20260506091003 | 62 | 169 | 5.0 | 12.0 | 0.00 | 0.00 | 0.00 | 77 | 1008.7 |
| 20260506090503 | 62 | 170 | 4.0 | 11.0 | 0.00 | 0.00 | 0.00 | 77 | 1008.8 |
| 20260506090003 | 62 | 170 | 5.0 | 15.0 | 0.00 | 0.00 | 0.00 | 77 | 1008.8 |
| 20260506085503 | 62 | 168 | 6.0 | 15.0 | 0.00 | 0.00 | 0.00 | 76 | 1008.8 |
| 20260506085024 | 62 | 166 | 6.0 | 14.0 | 0.00 | 0.00 | 0.00 | 76 | 1008.7 |
| 20260506084504 | 62 | 167 | 6.0 | 15.0 | 0.00 | 0.00 | 0.00 | 76 | 1008.7 |
| 20260506084003 | 62 | 166 | 6.0 | 15.0 | 0.00 | 0.00 | 0.00 | 76 | 1008.8 |
| 20260506083524 | 63 | 166 | 6.0 | 14.0 | 0.00 | 0.00 | 0.00 | 75 | 1008.8 |
| 20260506083003 | 63 | 165 | 5.0 | 18.0 | 0.00 | 0.00 | 0.00 | 75 | 1008.8 |
| 20260506082524 | 63 | 163 | 6.0 | 18.0 | 0.00 | 0.00 | 0.00 | 75 | 1008.8 |
| 20260506082003 | 63 | 163 | 6.0 | 15.0 | 0.00 | 0.00 | 0.00 | 75 | 1008.8 |
| 20260506081503 | 63 | 166 | 5.0 | 15.0 | 0.00 | 0.00 | 0.00 | 75 | 1008.7 |
| 20260506081003 | 63 | 167 | 6.0 | 18.0 | 0.00 | 0.00 | 0.00 | 74 | 1008.7 |
| 20260506080503 | 63 | 166 | 6.0 | 18.0 | 0.00 | 0.00 | 0.00 | 74 | 1008.7 |
| 20260506073524 | 64 | 168 | 5.0 | 12.0 | 0.00 | 0.00 | 0.00 | 72 | 1008.7 |
| 20260506073003 | 64 | 166 | 6.0 | 12.0 | 0.00 | 0.00 | 0.00 | 72 | 1008.6 |
| 20260506072503 | 64 | 166 | 6.0 | 14.0 | 0.00 | 0.00 | 0.00 | 72 | 1008.6 |
| 20260506072003 | 64 | 168 | 6.0 | 14.0 | 0.00 | 0.00 | 0.00 | 71 | 1008.5 |
| 20260506071503 | 64 | 168 | 5.0 | 12.0 | 0.00 | 0.00 | 0.00 | 71 | 1008.4 |
| 20260506071024 | 64 | 168 | 5.0 | 12.0 | 0.00 | 0.00 | 0.00 | 71 | 1008.4 |
| 20260506070524 | 64 | 170 | 5.0 | 13.0 | 0.00 | 0.00 | 0.00 | 70 | 1008.4 |
| 20260506062503 | 65 | 169 | 7.0 | 14.0 | 0.00 | 0.00 | 0.00 | 67 | 1008.4 |
| 20260506062003 | 65 | 174 | 6.0 | 15.0 | 0.00 | 0.00 | 0.00 | 67 | 1008.4 |
| 20260506061503 | 65 | 176 | 7.0 | 17.0 | 0.00 | 0.00 | 0.00 | 67 | 1008.4 |
| 20260506061003 | 66 | 171 | 8.0 | 21.0 | 0.00 | 0.00 | 0.00 | 66 | 1008.3 |
| 20260506060504 | 66 | 170 | 8.0 | 21.0 | 0.00 | 0.00 | 0.00 | 66 | 1008.3 |
| 20260506051003 | 65 | 165 | 5.0 | 11.0 | 0.00 | 0.00 | 0.00 | 66 | 1008.5 |
| 20260506050524 | 64 | 166 | 4.0 | 12.0 | 0.00 | 0.00 | 0.00 | 66 | 1008.6 |
| 20260506045003 | 64 | 158 | 2.0 | 14.0 | 0.00 | 0.00 | 0.00 | 66 | 1008.6 |
| 20260506044503 | 65 | 161 | 3.0 | 14.0 | 0.00 | 0.00 | 0.00 | 66 | 1008.7 |
| 20260506044003 | 65 | 164 | 3.0 | 11.0 | 0.00 | 0.00 | 0.00 | 66 | 1008.7 |
| 20260506043504 | 65 | 163 | 4.0 | 12.0 | 0.00 | 0.00 | 0.00 | 65 | 1008.7 |
| 20260506043003 | 65 | 162 | 4.0 | 12.0 | 0.00 | 0.00 | 0.00 | 65 | 1008.7 |
| 20260506042524 | 65 | 161 | 4.0 | 11.0 | 0.00 | 0.00 | 0.00 | 65 | 1008.7 |
| 20260506042003 | 65 | 162 | 3.0 | 11.0 | 0.00 | 0.00 | 0.00 | 65 | 1008.7 |
| 20260506041503 | 65 | 162 | 2.0 | 10.0 | 0.00 | 0.00 | 0.00 | 65 | 1008.7 |
| 20260506041024 | 65 | 164 | 3.0 | 10.0 | 0.00 | 0.00 | 0.00 | 64 | 1008.7 |